EW4271 Weather Reports


time (UTC)temp
F
wind
direction
speed
knots
gust
knots
rain 1hr
in
rain 24hr
in
rain mn
in
humidity
%
barometer
mb
20260905045107 61 34 0.0 0.0 0.00 0.01 0.01 79 1026.2
20260905044623 62 34 0.0 0.0 0.00 0.01 0.01 79 1026.2
20260905044114 62 34 0.0 0.0 0.00 0.01 0.01 78 1026.4
20260905043607 63 34 0.0 0.0 0.00 0.01 0.01 77 1026.6
20260905043104 63 34 0.0 0.0 0.00 0.01 0.01 77 1026.5
20260905042618 63 34 0.0 0.0 0.00 0.01 0.01 76 1026.7
20260905042112 63 34 0.0 0.0 0.00 0.01 0.01 76 1026.7
20260905041627 64 34 0.0 0.0 0.00 0.01 0.01 75 1026.7
20260905041120 64 34 0.0 0.0 0.00 0.01 0.01 73 1026.7
20260905040614 64 34 0.0 0.0 0.00 0.01 0.01 74 1026.7
20260905040107 65 34 0.0 0.0 0.00 0.01 0.01 73 1026.7
20260905035622 65 34 0.0 0.0 0.00 0.01 0.01 72 1026.8
20260905035135 65 34 0.0 0.0 0.00 0.01 0.01 71 1026.8
20260905034630 66 34 0.0 0.0 0.00 0.01 0.01 71 1026.7
20260905034106 66 34 0.0 0.0 0.00 0.01 0.01 68 1026.7
20260905033620 67 34 0.0 0.0 0.00 0.01 0.01 68 1026.8
20260905033114 67 34 0.0 0.0 0.00 0.01 0.01 69 1026.8
20260905032608 68 34 0.0 0.0 0.00 0.01 0.01 68 1026.7
20260905032142 68 34 0.0 0.0 0.00 0.01 0.01 65 1026.7
20260905031615 68 34 0.0 0.0 0.00 0.01 0.01 66 1026.7
20260905031109 68 34 0.0 0.0 0.00 0.01 0.01 64 1026.7
20260905030643 68 34 0.0 0.9 0.00 0.01 0.01 63 1026.7
20260905030116 68 34 0.0 0.9 0.00 0.01 0.01 63 1026.6
20260905025614 68 34 0.0 0.0 0.00 0.01 0.01 64 1026.4
20260905025108 68 34 0.0 0.0 0.00 0.01 0.01 63 1026.5
20260905024622 69 34 0.0 0.0 0.00 0.01 0.01 62 1026.4
20260905024116 69 34 0.0 0.0 0.00 0.01 0.01 62 1026.4
20260905023610 69 34 0.0 1.7 0.00 0.01 0.01 62 1026.3
20260905023103 69 34 0.0 1.7 0.00 0.01 0.01 61 1026.1
20260905022618 69 34 0.9 1.7 0.00 0.01 0.01 61 1026.1
20260905022110 69 34 0.0 4.3 0.00 0.01 0.01 60 1025.9
20260905021609 69 34 2.6 4.3 0.00 0.01 0.01 60 1025.7
20260905021104 69 40 0.9 2.6 0.00 0.01 0.01 60 1025.5
20260905020637 69 131 0.0 4.3 0.00 0.01 0.01 60 1025.4
20260905020110 68 101 0.0 6.1 0.00 0.01 0.01 61 1025.4
20260905015624 68 126 1.7 3.5 0.00 0.01 0.01 63 1025.3
20260905015118 68 90 0.9 4.3 0.00 0.01 0.01 66 1025.3
20260905014611 68 232 0.0 0.0 0.00 0.01 0.01 65 1025.1
20260905014104 68 232 0.0 0.0 0.00 0.01 0.01 66 1025.0
20260905013618 68 232 0.0 0.0 0.00 0.01 0.01 64 1024.9
20260905013111 69 232 0.0 0.0 0.00 0.03 0.01 62 1024.8
20260905012609 69 232 0.0 0.0 0.00 0.03 0.01 63 1024.8
20260905012122 69 232 0.0 0.0 0.00 0.03 0.01 60 1024.8
20260905011635 69 232 0.0 0.0 0.00 0.03 0.01 60 1024.8
20260905011108 70 232 0.0 0.0 0.00 0.03 0.01 60 1024.8
20260905010602 70 232 0.0 1.7 0.00 0.03 0.01 58 1024.8
20260905010117 69 232 0.0 1.7 0.00 0.03 0.01 58 1024.9
20260905005610 69 232 0.0 1.7 0.00 0.03 0.01 59 1024.8
20260905005103 69 232 0.9 2.6 0.00 0.03 0.01 59 1024.7
20260905004616 70 234 1.7 3.5 0.00 0.03 0.01 58 1024.8
20260905004115 70 234 1.7 3.5 0.00 0.03 0.01 58 1024.7
20260905003608 70 249 1.7 3.5 0.00 0.03 0.01 57 1024.6
20260905003121 71 215 0.0 3.5 0.00 0.21 0.01 55 1024.6
20260905002616 71 218 0.9 4.3 0.00 0.21 0.01 54 1024.6
20260905002110 72 51 1.7 3.5 0.00 0.21 0.01 55 1024.7
20260905001603 73 295 1.7 5.2 0.00 0.21 0.01 55 1024.6
20260905001118 74 36 2.6 5.2 0.00 0.21 0.01 47 1024.6
20260905000615 74 251 0.9 4.3 0.00 0.21 0.01 45 1024.7
20260905000109 75 32 1.7 5.2 0.00 0.21 0.01 45 1024.5
20260904235603 76 229 2.6 5.2 0.00 0.21 0.01 44 1024.5
20260904235117 77 321 1.7 4.3 0.00 0.21 0.01 42 1024.4
20260904234609 77 18 0.9 4.3 0.00 0.21 0.01 42 1024.1
20260904234102 77 117 0.0 0.0 0.00 0.21 0.01 41 1024.1
20260904233635 78 117 0.0 1.7 0.00 0.21 0.01 41 1023.9
20260904233109 78 117 0.9 1.7 0.00 0.21 0.01 39 1023.9
20260904232603 78 117 0.9 2.6 0.00 0.21 0.01 40 1023.9
20260904232120 78 155 0.9 2.6 0.00 0.21 0.01 40 1023.9
20260904231615 79 169 0.0 2.6 0.00 0.21 0.01 39 1023.9
20260904231129 79 169 0.9 3.5 0.00 0.21 0.01 39 1023.9
20260904230621 79 151 1.7 3.5 0.00 0.21 0.01 39 1023.9
20260904230115 79 142 0.0 1.7 0.00 0.21 0.01 39 1023.8
20260904225610 80 160 0.9 1.7 0.00 0.21 0.01 38 1023.8
20260904225103 80 160 0.9 2.6 0.00 0.21 0.01 39 1023.8
20260904224616 80 160 0.9 2.6 0.00 0.21 0.01 39 1023.8
20260904224114 79 53 0.9 3.5 0.00 0.21 0.01 38 1023.7
20260904223628 80 55 2.6 3.5 0.00 0.21 0.01 37 1023.8
20260904223120 80 192 1.7 2.6 0.00 0.21 0.01 38 1023.8
20260904222613 80 320 0.0 2.6 0.00 0.21 0.01 39 1023.8
20260904222108 80 320 0.9 2.6 0.00 0.21 0.01 40 1023.8
20260904221621 80 333 0.9 2.6 0.00 0.21 0.01 38 1023.9
20260904221115 79 355 0.9 2.6 0.00 0.21 0.01 40 1024.0
20260904220606 78 355 1.7 2.6 0.00 0.21 0.01 41 1024.1
20260904220120 78 55 1.7 5.2 0.00 0.21 0.01 40 1024.1
20260904215613 78 46 2.6 5.2 0.00 0.21 0.01 41 1024.0
20260904215108 78 115 0.9 2.6 0.00 0.21 0.01 46 1024.1
20260904214642 77 172 0.9 2.6 0.00 0.21 0.01 44 1024.1
20260904214114 77 36 1.7 4.3 0.00 0.21 0.01 44 1024.3
20260904213608 76 53 2.6 4.3 0.00 0.21 0.01 47 1024.4
20260904213122 76 80 1.7 4.3 0.00 0.21 0.01 49 1024.6
20260904212615 76 52 1.7 3.5 0.00 0.21 0.01 49 1024.6
20260904212109 77 57 1.7 3.5 0.00 0.21 0.01 46 1024.6
20260904211602 77 56 2.6 3.5 0.00 0.21 0.01 45 1024.6
20260904211121 77 49 1.7 2.6 0.00 0.21 0.01 45 1024.6
20260904210613 77 5 0.9 1.7 0.00 0.21 0.01 46 1024.7
20260904210108 78 342 0.9 2.6 0.00 0.21 0.01 42 1024.8
20260904205620 78 34 0.9 2.6 0.00 0.21 0.01 41 1024.8
20260904205113 78 268 0.0 2.6 0.00 0.21 0.01 43 1024.9
20260904204607 79 254 0.9 2.6 0.00 0.21 0.01 40 1025.0
20260904204120 79 254 0.9 4.3 0.00 0.21 0.01 40 1025.1
20260904203614 80 217 1.7 6.1 0.00 0.21 0.01 40 1025.1
20260904203108 80 157 0.9 4.3 0.00 0.21 0.01 41 1025.1
20260904202605 80 127 0.9 3.5 0.00 0.21 0.01 40 1025.2
20260904202119 80 164 0.9 3.5 0.00 0.21 0.01 40 1025.3
20260904201612 79 144 1.7 3.5 0.00 0.21 0.01 41 1025.3
20260904201105 79 177 0.9 2.6 0.00 0.21 0.01 42 1025.4
20260904200618 79 298 0.9 3.5 0.00 0.21 0.01 41 1025.5
20260904200112 79 150 1.7 3.5 0.00 0.21 0.01 42 1025.6
20260904195626 79 146 0.0 4.3 0.00 0.21 0.01 44 1025.6
20260904195117 79 212 1.7 4.3 0.00 0.21 0.01 42 1025.6
20260904194615 79 279 0.9 7.8 0.00 0.21 0.01 41 1025.8
20260904194108 79 293 1.7 7.8 0.00 0.21 0.01 42 1025.8
20260904193602 79 139 0.9 2.6 0.00 0.21 0.01 46 1025.8
20260904193115 78 198 1.7 4.3 0.00 0.21 0.01 45 1025.9
20260904192609 77 105 1.7 7.0 0.00 0.21 0.01 45 1026.0
20260904192103 76 145 2.6 7.0 0.00 0.21 0.01 51 1025.9
20260904191615 75 41 2.6 4.3 0.00 0.21 0.01 47 1026.1
20260904191108 75 139 0.9 3.5 0.00 0.21 0.01 49 1026.2
20260904190606 75 105 0.9 2.6 0.00 0.21 0.01 50 1026.2
20260904190120 75 115 0.0 2.6 0.00 0.21 0.01 47 1026.2
20260904185613 75 138 0.0 0.9 0.00 0.21 0.01 47 1026.2
20260904185127 75 138 0.0 1.7 0.00 0.21 0.01 49 1026.3
20260904184619 75 138 0.9 3.5 0.00 0.21 0.01 46 1026.4
20260904184112 75 140 1.7 6.1 0.00 0.21 0.01 46 1026.4
20260904183606 75 29 2.6 6.1 0.00 0.21 0.01 46 1026.5
20260904183120 75 67 0.9 2.6 0.00 0.21 0.01 47 1026.6
20260904182614 75 67 0.9 7.0 0.00 0.21 0.01 47 1026.6
20260904182111 75 144 2.6 7.0 0.00 0.21 0.01 47 1026.7
20260904181605 76 128 3.5 6.1 0.00 0.21 0.01 44 1026.7
20260904181119 76 70 0.0 4.3 0.00 0.21 0.01 46 1026.7
20260904180612 76 142 1.7 4.3 0.00 0.21 0.01 44 1026.8
20260904180105 76 94 0.9 6.1 0.00 0.21 0.01 47 1026.8
20260904175620 76 141 1.7 6.1 0.00 0.21 0.01 45 1026.9
20260904175114 76 221 0.9 3.5 0.00 0.21 0.01 46 1026.8
20260904174611 76 107 1.7 2.6 0.00 0.21 0.01 49 1026.9
20260904174105 76 25 0.9 3.5 0.00 0.21 0.01 49 1026.9
20260904173639 76 35 1.7 3.5 0.00 0.21 0.01 50 1026.8
20260904173111 75 159 1.7 4.3 0.00 0.21 0.01 49 1026.9
20260904172605 74 194 0.9 4.3 0.00 0.21 0.01 47 1026.9
20260904172119 73 234 0.0 3.5 0.00 0.21 0.01 49 1026.9
20260904171633 73 53 2.6 3.5 0.00 0.21 0.01 48 1026.9
20260904171105 73 59 0.9 3.5 0.00 0.21 0.01 50 1026.9
20260904170618 73 40 1.7 3.5 0.00 0.21 0.01 49 1026.9
20260904170116 73 46 2.6 3.5 0.00 0.21 0.01 48 1027.0
20260904165609 73 46 0.0 3.5 0.00 0.21 0.01 50 1027.0
20260904165102 73 46 0.9 3.5 0.00 0.21 0.01 50 1027.1
20260904164617 73 68 1.7 5.2 0.00 0.21 0.01 51 1027.1
20260904164110 72 154 0.0 4.3 0.00 0.21 0.01 51 1027.0
20260904163604 72 57 1.7 3.5 0.00 0.21 0.01 51 1027.0
20260904163118 72 207 0.0 3.5 0.00 0.21 0.01 50 1027.2
20260904162611 72 207 2.6 3.5 0.00 0.21 0.01 51 1027.2
20260904162109 71 34 0.9 3.5 0.00 0.21 0.01 53 1027.2
20260904161642 71 123 0.9 1.7 0.00 0.21 0.01 53 1027.2
20260904161114 70 125 0.9 1.7 0.00 0.21 0.01 54 1027.1
20260904160607 70 72 0.9 1.7 0.00 0.21 0.01 53 1027.1
20260904160120 70 163 0.0 0.0 0.00 0.21 0.01 53 1027.1
20260904155634 71 163 0.0 0.9 0.00 0.21 0.01 52 1027.1
20260904155105 70 163 0.0 2.6 0.00 0.21 0.01 54 1027.1
20260904154619 70 163 0.9 2.6 0.00 0.21 0.01 53 1027.1
20260904154112 70 163 1.7 2.6 0.00 0.21 0.01 52 1027.0
20260904153607 70 163 0.9 3.5 0.00 0.21 0.01 53 1027.1
20260904153104 70 156 0.0 2.6 0.00 0.21 0.01 54 1027.1
20260904152618 70 138 0.9 2.6 0.00 0.21 0.01 56 1027.1
20260904152111 69 130 0.9 2.6 0.00 0.21 0.01 60 1027.0
20260904151605 69 31 1.7 2.6 0.00 0.21 0.01 59 1027.0
20260904151140 69 101 0.0 0.9 0.00 0.21 0.01 59 1027.0
20260904150613 68 66 0.0 1.7 0.00 0.21 0.01 61 1027.0
20260904150106 68 67 0.0 1.7 0.00 0.21 0.01 61 1027.0
20260904145620 67 67 0.0 1.7 0.00 0.21 0.01 59 1027.0
20260904145114 67 173 0.0 2.6 0.00 0.21 0.01 61 1027.0
20260904144611 66 173 1.7 2.6 0.00 0.21 0.01 62 1026.9
20260904144106 65 144 0.0 0.0 0.00 0.21 0.01 68 1026.9
20260904143619 64 105 0.0 0.0 0.00 0.21 0.01 72 1026.9
20260904143113 63 105 0.0 0.0 0.00 0.21 0.01 78 1026.9
20260904142606 62 105 0.0 0.0 0.00 0.21 0.01 79 1026.8
20260904142120 62 105 0.0 0.0 0.00 0.21 0.01 76 1026.7
20260904141634 61 105 0.0 0.0 0.00 0.21 0.01 78 1026.7
20260904141106 61 105 0.0 0.0 0.00 0.21 0.01 78 1026.6
20260904140604 60 105 0.0 0.0 0.00 0.21 0.01 82 1026.5
20260904140117 60 105 0.0 0.0 0.00 0.21 0.01 83 1026.5
20260904135611 59 105 0.0 0.0 0.00 0.21 0.01 82 1026.3
20260904135104 59 105 0.0 0.0 0.00 0.21 0.01 83 1026.2
20260904134618 59 105 0.0 0.0 0.01 0.21 0.01 82 1026.1
20260904134110 59 105 0.0 0.0 0.01 0.21 0.01 82 1026.1
20260904133604 59 105 0.0 0.0 0.01 0.21 0.01 81 1026.1
20260904133117 59 105 0.0 0.0 0.01 0.21 0.01 81 1026.1
20260904132616 59 105 0.0 0.0 0.01 0.21 0.01 82 1026.1
20260904132108 59 105 0.0 0.0 0.01 0.21 0.01 82 1026.0
20260904131602 59 105 0.0 0.0 0.01 0.21 0.01 82 1025.9
20260904131116 59 105 0.0 0.0 0.01 0.21 0.01 83 1025.7
20260904130609 59 105 0.0 0.0 0.01 0.21 0.01 83 1025.8
20260904130143 59 105 0.0 0.0 0.01 0.21 0.01 82 1025.7
20260904125616 59 105 0.0 0.0 0.01 0.21 0.01 82 1025.5
20260904125110 59 105 0.0 0.0 0.01 0.21 0.01 80 1025.5
20260904124608 59 105 0.0 0.0 0.00 0.20 0.00 81 1025.4
20260904124122 59 105 0.0 0.0 0.00 0.20 0.00 81 1025.4
20260904123615 59 105 0.0 0.0 0.00 0.20 0.00 82 1025.5
20260904123108 59 105 0.0 0.0 0.00 0.20 0.00 82 1025.4
20260904122621 59 105 0.0 0.0 0.00 0.20 0.00 81 1025.4
20260904122115 59 105 0.0 0.0 0.00 0.20 0.00 80 1025.3
20260904121629 59 105 0.0 0.0 0.00 0.20 0.00 81 1025.3
20260904121102 59 105 0.0 0.0 0.00 0.20 0.00 80 1025.2
20260904120614 59 105 0.0 0.0 0.00 0.20 0.00 80 1025.1
20260904120112 59 105 0.0 0.0 0.00 0.20 0.00 81 1025.1
20260904115625 59 105 0.0 0.0 0.00 0.20 0.00 83 1025.1
20260904115117 59 105 0.0 0.0 0.00 0.20 0.00 81 1025.0
20260904114610 59 105 0.0 0.0 0.00 0.20 0.00 81 1025.0
20260904114123 59 105 0.0 0.0 0.00 0.20 0.00 82 1024.9
20260904113617 59 105 0.0 0.0 0.00 0.20 0.00 81 1024.9
20260904113111 59 105 0.0 0.0 0.00 0.20 0.00 79 1024.9
20260904112626 59 105 0.0 0.0 0.00 0.20 0.00 80 1024.8
20260904112118 59 105 0.0 0.0 0.00 0.20 0.00 80 1024.8
20260904111632 59 105 0.0 0.0 0.00 0.20 0.00 81 1024.9
20260904111106 59 105 0.0 0.0 0.00 0.20 0.00 82 1024.9
20260904110604 59 105 0.0 0.0 0.00 0.20 0.00 80 1024.8
20260904110118 59 105 0.0 0.0 0.00 0.20 0.00 80 1024.8
20260904105612 59 105 0.0 0.0 0.00 0.20 0.00 81 1024.8
20260904105126 59 105 0.0 0.0 0.00 0.20 0.00 83 1024.7
20260904104620 59 105 0.0 0.0 0.00 0.20 0.00 82 1024.6
20260904104113 59 105 0.0 0.0 0.00 0.20 0.00 84 1024.6
20260904103607 59 105 0.0 0.0 0.00 0.20 0.00 82 1024.5
20260904103121 59 105 0.0 0.0 0.00 0.20 0.00 82 1024.5
20260904102615 59 105 0.0 0.0 0.00 0.20 0.00 81 1024.5
20260904102113 59 105 0.0 0.0 0.00 0.20 0.00 82 1024.5
20260904101607 59 105 0.0 0.0 0.00 0.20 0.00 82 1024.5
20260904101121 58 105 0.0 0.0 0.00 0.20 0.00 81 1024.5
20260904100616 58 105 0.0 0.0 0.00 0.20 0.00 82 1024.5
20260904100111 58 105 0.0 0.0 0.00 0.20 0.00 83 1024.6
20260904095605 58 105 0.0 0.0 0.00 0.20 0.00 84 1024.5
20260904095139 58 105 0.0 0.0 0.00 0.20 0.00 82 1024.5
20260904094612 58 105 0.0 0.0 0.00 0.20 0.00 82 1024.5
20260904094109 58 105 0.0 0.0 0.00 0.20 0.00 83 1024.5
20260904093604 58 105 0.0 0.0 0.00 0.20 0.00 84 1024.4
20260904093118 58 105 0.0 0.0 0.00 0.20 0.00 83 1024.4
20260904092612 57 105 0.0 0.0 0.00 0.20 0.00 82 1024.4
20260904092106 57 105 0.0 0.0 0.00 0.20 0.00 82 1024.5
20260904091637 57 105 0.0 0.0 0.00 0.20 0.00 83 1024.5
20260904091111 57 105 0.0 0.0 0.00 0.20 0.00 82 1024.6
20260904090604 57 105 0.0 0.0 0.00 0.20 0.00 83 1024.5
20260904085616 56 105 0.0 0.0 0.00 0.20 0.00 83 1024.6
20260904085111 56 105 0.0 0.0 0.00 0.20 0.00 83 1024.5
20260904084625 56 105 0.0 0.0 0.00 0.20 0.00 84 1024.5
20260904084118 56 105 0.0 0.0 0.00 0.20 0.00 84 1024.5
20260904083633 56 105 0.0 0.0 0.00 0.20 0.00 82 1024.6
20260904083106 56 105 0.0 0.0 0.00 0.20 0.00 84 1024.6
20260904082620 56 105 0.0 0.0 0.00 0.20 0.00 85 1024.6
20260904082114 56 105 0.0 0.0 0.00 0.20 0.00 84 1024.7
20260904081612 56 105 0.0 0.0 0.00 0.20 0.00 83 1024.7
20260904081106 56 105 0.0 0.0 0.00 0.20 0.00 82 1024.7
20260904080620 56 105 0.0 0.0 0.00 0.20 0.00 81 1024.6
20260904080116 56 105 0.0 0.0 0.00 0.20 0.00 83 1024.6
20260904075608 56 105 0.0 0.0 0.00 0.20 0.00 82 1024.7
20260904075122 56 105 0.0 0.0 0.00 0.20 0.00 81 1024.6
20260904074615 56 105 0.0 0.0 0.00 0.20 0.00 80 1024.7
20260904074109 56 105 0.0 0.0 0.00 0.20 0.00 81 1024.8
20260904073607 56 105 0.0 0.0 0.00 0.20 0.00 81 1024.8
20260904073103 56 105 0.0 0.0 0.00 0.20 0.00 81 1024.9
20260904072617 56 105 0.0 0.0 0.00 0.20 0.00 81 1024.9
20260904072111 57 105 0.0 0.0 0.00 0.20 0.00 81 1025.0
20260904071625 57 105 0.0 0.0 0.00 0.20 0.00 82 1024.8
20260904071139 57 105 0.0 0.0 0.00 0.20 0.00 81 1024.8
20260904070612 57 105 0.0 0.0 0.00 0.20 0.00 80 1024.9
20260904070106 57 105 0.0 0.0 0.00 0.20 0.00 80 1024.8
20260904065604 57 105 0.0 0.0 0.00 0.20 0.00 80 1024.8
20260904065118 58 105 0.0 0.0 0.00 0.20 0.00 80 1024.8
20260904064613 58 105 0.0 0.0 0.00 0.20 0.00 79 1024.8
20260904064107 58 105 0.0 0.0 0.00 0.20 0.00 80 1024.8
20260904063642 58 105 0.0 0.0 0.00 0.20 0.00 79 1024.9
20260904063114 58 105 0.0 0.0 0.00 0.20 0.20 80 1025.0
20260904062609 59 105 0.0 0.0 0.00 0.20 0.20 80 1025.0
20260904062102 59 105 0.0 0.0 0.00 0.20 0.20 79 1025.0
20260904061617 59 105 0.0 0.0 0.00 0.20 0.20 79 1025.0
20260904061115 59 105 0.0 0.0 0.00 0.20 0.20 79 1025.0
20260904060609 59 105 0.0 0.0 0.00 0.20 0.20 78 1025.0
20260904060103 59 105 0.0 0.0 0.00 0.20 0.20 78 1025.0
20260904055617 60 105 0.0 0.0 0.00 0.20 0.20 78 1025.1
20260904055110 60 105 0.0 0.0 0.00 0.20 0.20 77 1025.1
20260904054605 60 105 0.0 0.0 0.00 0.20 0.20 78 1025.2
20260904054118 60 105 0.0 0.0 0.00 0.20 0.20 79 1025.2
20260904053612 60 105 0.0 0.0 0.00 0.20 0.20 78 1025.2
20260904053110 60 105 0.0 0.0 0.00 0.20 0.20 77 1025.3
20260904052604 60 105 0.0 0.0 0.00 0.20 0.20 78 1025.3
20260904052118 60 105 0.0 0.0 0.00 0.20 0.20 78 1025.2
20260904051613 60 105 0.0 0.0 0.00 0.20 0.20 79 1025.2
20260904051107 61 105 0.0 0.0 0.00 0.20 0.20 76 1025.1
20260904050621 61 105 0.0 0.0 0.00 0.20 0.20 76 1025.2
20260904050136 61 105 0.0 0.0 0.00 0.20 0.20 76 1025.1
20260904045610 61 105 0.0 0.0 0.00 0.20 0.20 74 1025.1